When you browse on this site, cookies collect data to enhance your experience and personalize the content and advertising you see.
Visit our Privacy Policy to learn more. By continuing to use the site, you agree to this use of cookies and data.
  • In Czech Republic
  • List of Countries
  • For 7 days
  • Water Temperature
  • Weather Map
  • Weather Widgets
  • user-avatar
    Login

    Hourly Weather Kandava

    Today, 3 April, Friday

    Time Temperature Precipitation Wind Pressure Humidity
    00:00 +2°C° 1 mm 10 mps 736 mmHg 73%
    01:00 +2°C° 1 mm 9 mps 735 mmHg 77%
    02:00 +1°C° 0 mm 8 mps 734 mmHg 82%
    03:00 0°C° 0.1 mm 8 mps 734 mmHg 80%
    04:00 0°C° 0.1 mm 7 mps 734 mmHg 78%
    05:00 -1°C° 0.1 mm 7 mps 733 mmHg 76%
    06:00 0°C° 0.2 mm 8 mps 734 mmHg 75%
    07:00 0°C° 0.2 mm 8 mps 734 mmHg 73%
    08:00 0°C° 0.2 mm 9 mps 734 mmHg 71%
    09:00 +1°C° 0.1 mm 9 mps 735 mmHg 66%
    10:00 +2°C° 0.1 mm 9 mps 736 mmHg 60%
    11:00 +2°C° 0.1 mm 9 mps 736 mmHg 54%
    12:00 +3°C° 0 mm 9 mps 738 mmHg 50%
    13:00 +3°C° 0 mm 9 mps 739 mmHg 46%
    14:00 +3°C° 0 mm 9 mps 740 mmHg 43%
    15:00 +4°C° 0 mm 8 mps 741 mmHg 42%
    16:00 +4°C° 0 mm 7 mps 742 mmHg 41%
    17:00 +4°C° 0 mm 7 mps 742 mmHg 40%
    18:00 +2°C° 0 mm 5 mps 743 mmHg 46%
    19:00 +1°C° 0 mm 4 mps 743 mmHg 53%
    20:00 +1°C° 0 mm 3 mps 744 mmHg 60%
    21:00 +1°C° 0 mm 3 mps 744 mmHg 63%
    22:00 0°C° 0 mm 3 mps 745 mmHg 66%
    23:00 +1°C° 0 mm 2 mps 745 mmHg 68%

    Tomorrow, 4 April, Saturday

    Time Temperature Precipitation Wind Pressure Humidity
    00:00 0°C° 0 mm 3 mps 746 mmHg 69%
    01:00 -1°C° 0 mm 3 mps 747 mmHg 70%
    02:00 -1°C° 0 mm 3 mps 748 mmHg 71%
    03:00 -1°C° 0 mm 3 mps 748 mmHg 72%
    04:00 -1°C° 0 mm 3 mps 749 mmHg 73%
    05:00 -1°C° 0 mm 3 mps 749 mmHg 73%
    06:00 0°C° 0 mm 3 mps 750 mmHg 69%
    07:00 +1°C° 0 mm 3 mps 751 mmHg 66%
    08:00 +1°C° 0 mm 4 mps 752 mmHg 62%
    09:00 +3°C° 0.1 mm 4 mps 752 mmHg 57%
    10:00 +3°C° 0.1 mm 5 mps 753 mmHg 51%
    11:00 +5°C° 0.1 mm 5 mps 754 mmHg 46%
    12:00 +5°C° 0 mm 5 mps 754 mmHg 44%
    13:00 +4°C° 0 mm 6 mps 755 mmHg 42%
    14:00 +4°C° 0 mm 6 mps 756 mmHg 41%
    15:00 +4°C° 0.1 mm 6 mps 756 mmHg 44%
    16:00 +3°C° 0.1 mm 6 mps 757 mmHg 48%
    17:00 +3°C° 0.1 mm 6 mps 757 mmHg 52%
    18:00 +1°C° 0 mm 5 mps 758 mmHg 55%
    19:00 0°C° 0 mm 4 mps 759 mmHg 58%
    20:00 0°C° 0 mm 3 mps 759 mmHg 62%
    21:00 0°C° 0 mm 3 mps 760 mmHg 64%
    22:00 -1°C° 0 mm 3 mps 761 mmHg 67%
    23:00 -1°C° 0 mm 3 mps 762 mmHg 69%

    Day after tomorrow, 5 April, Sunday

    Time Temperature Precipitation Wind Pressure Humidity
    00:00 -2°C° 0 mm 2 mps 762 mmHg 70%
    01:00 -2°C° 0 mm 2 mps 763 mmHg 70%
    02:00 -2°C° 0 mm 2 mps 764 mmHg 71%
    03:00 -2°C° 0 mm 2 mps 764 mmHg 71%
    04:00 -2°C° 0 mm 2 mps 765 mmHg 72%
    05:00 -2°C° 0 mm 2 mps 765 mmHg 72%
    06:00 -1°C° 0 mm 2 mps 766 mmHg 67%
    07:00 +2°C° 0 mm 2 mps 767 mmHg 63%
    08:00 +3°C° 0 mm 2 mps 767 mmHg 58%
    09:00 +3°C° 0 mm 3 mps 768 mmHg 50%
    10:00 +5°C° 0 mm 3 mps 768 mmHg 42%
    11:00 +7°C° 0 mm 3 mps 769 mmHg 34%
    12:00 +8°C° 0 mm 3 mps 769 mmHg 34%
    13:00 +8°C° 0 mm 3 mps 769 mmHg 34%
    14:00 +9°C° 0 mm 3 mps 769 mmHg 34%
    15:00 +8°C° 0 mm 3 mps 769 mmHg 38%
    16:00 +8°C° 0 mm 3 mps 769 mmHg 41%
    17:00 +7°C° 0 mm 3 mps 768 mmHg 45%
    18:00 +5°C° 0 mm 3 mps 768 mmHg 54%
    19:00 +5°C° 0 mm 2 mps 768 mmHg 63%
    20:00 +3°C° 0 mm 2 mps 768 mmHg 72%
    21:00 +3°C° 0 mm 2 mps 768 mmHg 76%
    22:00 +2°C° 0 mm 2 mps 768 mmHg 80%
    23:00 +2°C° 0 mm 2 mps 769 mmHg 84%

    6 April, Monday

    Time Temperature Precipitation Wind Pressure Humidity
    00:00 +1°C° 0 mm 3 mps 769 mmHg 82%
    01:00 0°C° 0 mm 3 mps 769 mmHg 80%
    02:00 0°C° 0 mm 3 mps 769 mmHg 78%
    03:00 0°C° 0 mm 3 mps 769 mmHg 77%
    04:00 0°C° 0 mm 3 mps 768 mmHg 76%
    05:00 0°C° 0 mm 3 mps 768 mmHg 75%
    06:00 +1°C° 0 mm 3 mps 768 mmHg 70%
    07:00 +3°C° 0 mm 3 mps 768 mmHg 65%
    08:00 +4°C° 0 mm 4 mps 768 mmHg 60%
    09:00 +5°C° 0 mm 4 mps 768 mmHg 54%
    10:00 +7°C° 0 mm 4 mps 768 mmHg 49%
    11:00 +9°C° 0 mm 5 mps 768 mmHg 44%
    12:00 +9°C° 0 mm 5 mps 768 mmHg 43%
    13:00 +10°C° 0 mm 5 mps 768 mmHg 41%
    14:00 +12°C° 0 mm 5 mps 768 mmHg 40%
    15:00 +12°C° 0 mm 5 mps 767 mmHg 41%
    16:00 +12°C° 0 mm 4 mps 767 mmHg 42%
    17:00 +12°C° 0 mm 4 mps 766 mmHg 43%
    18:00 +10°C° 0 mm 4 mps 766 mmHg 48%
    19:00 +8°C° 0 mm 4 mps 766 mmHg 54%
    20:00 +6°C° 0 mm 4 mps 765 mmHg 59%
    21:00 +6°C° 0 mm 4 mps 765 mmHg 62%
    22:00 +6°C° 0 mm 4 mps 765 mmHg 65%
    23:00 +5°C° 0 mm 4 mps 765 mmHg 68%

    7 April, Tuesday

    Time Temperature Precipitation Wind Pressure Humidity
    00:00 +5°C° 0 mm 4 mps 764 mmHg 70%
    01:00 +5°C° 0 mm 4 mps 764 mmHg 72%
    02:00 +5°C° 0 mm 4 mps 764 mmHg 74%
    03:00 +5°C° 0 mm 4 mps 763 mmHg 76%
    04:00 +5°C° 0 mm 4 mps 763 mmHg 77%
    05:00 +5°C° 0 mm 4 mps 763 mmHg 78%
    06:00 +6°C° 0 mm 4 mps 763 mmHg 77%
    07:00 +7°C° 0 mm 5 mps 762 mmHg 76%
    08:00 +7°C° 0 mm 5 mps 762 mmHg 75%
    09:00 +9°C° 0 mm 5 mps 762 mmHg 71%
    10:00 +11°C° 0 mm 6 mps 762 mmHg 68%
    11:00 +13°C° 0 mm 6 mps 762 mmHg 64%
    12:00 +13°C° 0 mm 6 mps 763 mmHg 67%
    13:00 +12°C° 0 mm 5 mps 763 mmHg 70%
    14:00 +10°C° 0 mm 5 mps 763 mmHg 74%
    15:00 +10°C° 0 mm 5 mps 764 mmHg 67%
    16:00 +10°C° 0 mm 5 mps 764 mmHg 60%
    17:00 +10°C° 0 mm 5 mps 765 mmHg 53%
    18:00 +9°C° 0 mm 5 mps 765 mmHg 61%
    19:00 +7°C° 0 mm 4 mps 766 mmHg 68%
    20:00 +7°C° 0 mm 3 mps 766 mmHg 76%
    21:00 +5°C° 0 mm 3 mps 767 mmHg 79%
    22:00 +5°C° 0 mm 2 mps 767 mmHg 81%
    23:00 +5°C° 0 mm 2 mps 768 mmHg 84%

    8 April, Wednesday

    Time Temperature Precipitation Wind Pressure Humidity
    00:00 +4°C° 0 mm 2 mps 768 mmHg 83%
    01:00 +4°C° 0 mm 2 mps 768 mmHg 83%
    02:00 +4°C° 0 mm 2 mps 768 mmHg 82%
    03:00 +4°C° 0 mm 2 mps 768 mmHg 82%
    04:00 +4°C° 0 mm 2 mps 768 mmHg 81%
    05:00 +3°C° 0 mm 2 mps 768 mmHg 81%
    06:00 +5°C° 0 mm 2 mps 768 mmHg 73%
    07:00 +5°C° 0 mm 3 mps 768 mmHg 66%
    08:00 +7°C° 0 mm 3 mps 768 mmHg 59%
    09:00 +8°C° 0 mm 4 mps 767 mmHg 53%
    10:00 +10°C° 0 mm 4 mps 767 mmHg 47%
    11:00 +12°C° 0 mm 5 mps 767 mmHg 42%
    12:00 +12°C° 0 mm 5 mps 767 mmHg 40%
    13:00 +13°C° 0 mm 6 mps 766 mmHg 38%
    14:00 +13°C° 0 mm 6 mps 766 mmHg 37%
    15:00 +13°C° 0 mm 6 mps 765 mmHg 40%
    16:00 +11°C° 0 mm 6 mps 765 mmHg 44%
    17:00 +11°C° 0 mm 6 mps 764 mmHg 47%
    18:00 +9°C° 0 mm 6 mps 764 mmHg 54%
    19:00 +8°C° 0 mm 5 mps 763 mmHg 61%
    20:00 +7°C° 0 mm 4 mps 763 mmHg 68%
    21:00 +6°C° 0 mm 4 mps 763 mmHg 71%
    22:00 +6°C° 0 mm 5 mps 763 mmHg 74%
    23:00 +6°C° 0 mm 5 mps 763 mmHg 77%
    Show more